Location: Poughquag
(41.6090°N, 73.6820°W)
Time: 11:51:09
(UTC-04:00)

A-11 Canister half - Pass Details

Date: 07 June 2020
Orbit: 1527 x 1682 km, 47.3° (Epoch: 06 July)

Event Time Altitude Azimuth Distance (km) Brightness Sun altitude
Rises 12:11:26 0° 297° (WNW) 4,702 11.4 69.2°
Reaches altitude 10° 12:14:29 10° 294° (WNW) 3,730 11.0 69.5°
Maximum altitude 12:23:45 64° 216° (SW) 1,715 10.9 70.2°
Drops below altitude 10° 12:33:19 10° 138° (SE) 3,833 11.5 70.8°
Sets 12:36:30 0° 135° (SE) 4,838 11.8 70.9°
